Location: Moosonee
(51.2731°N, 80.6400°W)
Time: 20:09:21
(UTC-05:00)

ISS - Visible Passes

Search period start: 18 November 2019 00:00
Search period end: 28 November 2019 00:00
Orbit: 412 x 421 km, 51.6° (Epoch: 19 November)

Date Brightness Start Highest point End Pass type
(mag) Time Alt. Az. Time Alt. Az. Time Alt. Az.
22 Nov -1.4 18:40:36 10° S 18:41:38 15° S 18:41:38 15° S visible
23 Nov -1.5 17:53:14 10° SSE 17:54:52 13° SE 17:55:23 13° SE visible
23 Nov -0.8 19:27:46 10° SW 19:28:18 14° SW 19:28:18 14° SW visible
24 Nov -2.5 18:39:34 10° SW 18:41:58 32° S 18:41:58 32° S visible
25 Nov -2.3 17:51:33 10° SSW 17:54:22 26° SSE 17:55:34 21° ESE visible
25 Nov -1.0 19:27:28 10° WSW 19:28:28 18° WSW 19:28:28 18° WSW visible
26 Nov -1.8 17:03:45 10° S 17:06:07 18° SE 17:08:30 10° E visible
26 Nov -3.3 18:39:05 10° WSW 18:42:00 56° SSW 18:42:00 56° SSW visible
27 Nov -3.2 17:50:46 10° SW 17:54:00 47° SSE 17:55:30 27° E visible
27 Nov -1.0 19:27:18 10° W 19:28:24 19° W 19:28:24 19° W visible
